map of TNG home
Great Circle Mapper logo
TNG - Airport
Location
City:  Tanger, Morocco
Near (Alt.):Tangier
Name:Boukhalef
ICAO / IATA:GMTT / TNG

Details
Type:Airport (Aerodrome, Airfield)
Use:Public/Civil, International (customs port of entry)
Latitude:3543'37"N (35.726917)
Longitude:555'01"W (-5.916888)
Datum:WGS 1984
Elevation:62 ft (19 m)
Variation:1.7W (WMM2010 magnetic declination)
Runways:2
Longest:11483 × 148 ft (3500 × 45 m), paved

Time
Time Zone:UTC+0 (DST+1)
Local Time:

Weather
METAR:GMTT 282330Z 11007KT 8000 BKN016 FEW023CB 13/08 Q0988 TEMPO SHRA
TAF:GMTT 282300Z 2900/3006 VRB03KT 8000 BKN016 FEW023CB PROB30
TEMPO 2900/2910 08016KT 4000 SHRA SCT023CB PROB30
TEMPO 2910/2924 06010KT 6000 TSRA PROB30
TEMPO 3000/3006 22010KT 4000 RA SCT008 BKN010

Related Locations
Nearby:
Farthest:NZRW: 12437 mi / 20016 km
Ruawai, NZ

Find:

   beyond  
but within

Other Information
Maps:
NOTAMs:
Links:
Sources:

  
flag of Morocco   

Sectional Chart

Flight Planning
at skyvector.com

Satellite Image

Google Maps Satellite View

 

Copyright © 2004-2014 Karl L. Swartz. All rights reserved.
The Great Circle Mapper name and logo are trademarks of the Great Circle Mapper.
All other trademarks mentioned herein belong to their respective owners.
Please see credits for attibutions and further copyright information.

  Follow gcmap on Facebook Follow gcmap on Twitter

hCard Microformat

Geo Microformat